TIME,DELAY(SENSOR),PRES,OXYGEN,RAWTEMP,T(OPTODE),TCPHASE,FLUOR,BETA(BETA700),BETA(BETA412),BETA(BETA440),CDOM,C(CSC),ED(ED412.20),ED(ED444.00),ED(ED489.60),ED(ED554.30),LU(LU412.10),LU(LU443.90),LU(LU489.70),LU(LU554.70),COMP,TILTX,TILTY,CHECK
1367555156,5812,863.8400268554688000,32.0445518493652340,559.8914184570312000,4.4892640113830570,56.7607383728027340,55,100,99,78,82,15522,0,0,0,0,2147121618,2147770240,2147576420,2147562944,1980,2,13,25772
1367558752,5808,915.8300170898438000,33.7969017028808600,563.2238769531250000,4.3859391212463380,56.5041999816894500,55,97,100,77,82,15519,0,0,0,0,2147123885,2147774244,2147572809,2147571757,3580,2,13,64186
1367562352,5809,923.8300170898438000,33.0830001831054700,564.8590087890625000,4.3352088928222660,56.6340599060058600,55,98,100,78,81,15522,0,0,0,0,2147120886,2147770331,2147572836,2147568210,3481,3,13,24586
1367565952,5809,948.2199707031250000,35.8433685302734400,568.8168945312500000,4.2123198509216310,56.2353096008300800,54,102,99,78,81,15521,0,0,0,0,2147126948,2147772178,2147571081,2147566829,155,2,13,62495
1367569552,5811,948.7399902343750000,37.1038589477539060,569.3118286132812000,4.1969470977783200,56.0435218811035160,55,100,100,79,82,15520,0,0,0,0,2147119652,2147773129,2147576338,2147569956,45,2,13,59069
1367573152,5810,954.8200073242188000,37.2254104614257800,569.5059204101562000,4.1909160614013670,56.0307502746582000,55,99,99,78,82,15515,0,0,0,0,2147122852,2147769197,2147573184,2147569837,191,3,13,687
1367576752,5811,978.0399780273438000,38.2421112060546900,571.4428710937500000,4.1307139396667480,55.8926200866699200,54,97,100,78,81,15519,0,0,0,0,2147122697,2147771611,2147575058,2147568950,3330,2,13,11165
1367580352,5811,978.0000000000000000,39.4441299438476560,572.0130004882812000,4.1129889488220215,55.7224388122558600,56,98,99,78,82,15518,0,0,0,0,2147121691,2147773668,2147571428,2147568182,3273,2,13,5810
1367583952,5810,979.0900268554688000,38.9836387634277340,572.8679809570312000,4.0863990783691410,55.7992210388183600,55,98,99,77,82,15519,0,0,0,0,2147122468,2147776914,2147570395,2147569270,3059,2,13,14172
1367587552,5808,984.4000244140625000,38.8469886779785160,573.3997192382812000,4.0698637962341310,55.8214912414550800,55,97,101,80,81,15519,0,0,0,0,2147121572,2147770733,2147570349,2147565723,3252,2,13,21050
1367591152,5810,991.0100097656250000,40.0942192077636700,572.7626953125000000,4.0896759033203125,55.6327095031738300,54,98,100,78,82,15519,0,0,0,0,2147122294,2147774061,2147577261,2147565504,997,2,13,54611
1367594752,5812,989.1900024414062000,38.7424087524414060,572.7534179687500000,4.0899682044982910,55.8356094360351560,55,102,100,78,82,15517,0,0,0,0,2147122660,2147770770,2147577252,2147569106,67,2,13,42705
1367598352,5809,991.4199829101562000,39.9211616516113300,571.1660766601562000,4.1393170356750490,55.6404113769531250,56,97,99,78,80,15517,0,0,0,0,2147121517,2147771666,2147571090,2147566162,141,2,13,11155
1367601952,5811,986.7100219726562000,39.4282608032226560,571.4506835937500000,4.1304721832275390,55.7175788879394500,55,96,100,79,81,15518,0,0,0,0,2147123940,2147772489,2147572534,2147566345,2766,2,13,22752
1367605552,5810,991.7899780273438000,40.0449981689453100,571.6488037109375000,4.1243109703063965,55.6231803894043000,54,96,99,78,82,15517,0,0,0,0,2147121133,2147772498,2147573787,2147566217,3256,2,13,54515
1367609152,5812,995.0100097656250000,39.8336715698242200,570.8745727539062000,4.1483778953552250,55.6455192565918000,55,96,99,78,83,15516,0,0,0,0,2147118409,2147770322,2147575780,2147571712,25,2,13,19319
1367612752,5809,988.4099731445312000,39.5592918395996100,571.9163208007812000,4.1159949302673340,55.7057189941406250,54,106,101,77,82,15517,0,0,0,0,2147121965,2147767286,2147575158,2147567305,263,3,13,65528
1367616352,5810,983.3300170898438000,40.8625793457031250,573.3734741210938000,4.0706791877746580,55.5270805358886700,54,97,99,79,81,15518,0,0,0,0,2147120886,2147775497,2147571209,2147567030,215,2,13,47566
1367619952,5813,993.5599975585938000,40.8610496520996100,572.7802124023438000,4.0891318321228030,55.5188903808593750,55,99,100,78,82,15511,0,0,0,0,2147124809,2147774290,2147573046,2147562614,3291,2,13,34123
1367623552,5811,994.7999877929688000,40.9742317199707000,572.6788940429688000,4.0922827720642090,55.5026512145996100,55,99,100,79,82,15515,0,0,0,0,2147122404,2147773001,2147576786,2147567405,591,3,13,20005
1367627152,5812,985.0499877929688000,39.9340095520019500,572.6511840820312000,4.0931429862976070,55.6545791625976560,55,96,100,78,81,15498,0,0,0,0,2147118226,2147772928,2147576658,2147571803,2958,2,13,5077
1367630752,5811,986.7100219726562000,40.3137092590332000,574.9683837890625000,4.0210590362548830,55.6216201782226560,55,98,100,78,80,15497,0,0,0,0,2147122953,2147768813,2147575542,2147569270,3055,2,13,60597
1367634352,5810,989.6799926757812000,39.6179199218750000,573.9852905273438000,4.0516471862792970,55.7136688232421900,55,98,100,78,82,15497,0,0,0,0,2147124690,2147770230,2147573970,2147567104,3537,2,13,11248
1367637952,5808,987.5100097656250000,39.7687301635742200,573.0123901367188000,4.0819110870361330,55.6805496215820300,55,99,101,78,82,15501,0,0,0,0,2147120448,2147771090,2147573449,2147568640,155,2,13,38158
1367641552,5809,993.2399902343750000,39.9981918334960940,573.0872192382812000,4.0795860290527340,55.6459312438964840,55,97,100,78,82,15497,0,0,0,0,2147123337,2147767753,2147573696,2147567360,3588,2,13,27800
1367645152,5809,991.9799804687500000,38.9371490478515600,572.9417114257812000,4.0841097831726070,55.8060188293457000,54,98,101,77,80,15493,0,0,0,0,2147125037,2147769938,2147577252,2147568749,3488,2,13,41490
1367648752,5809,994.8699951171875000,39.7647705078125000,572.1519165039062000,4.1086711883544920,55.6756706237793000,55,97,100,77,82,15497,0,0,0,0,2147124068,2147771986,2147574875,2147567926,293,2,13,22490
1367652352,5809,990.5700073242188000,39.8985900878906250,572.2144165039062000,4.1067261695861820,55.6504707336425800,55,96,99,77,80,15493,0,0,0,0,2147123648,2147773897,2147574509,2147568064,3365,2,13,31148
1367655952,5811,988.7800292968750000,39.7088813781738300,572.2741088867188000,4.1048698425292970,55.6802482604980500,54,100,101,77,82,15495,0,0,0,0,2147122358,2147772489,2147571510,2147564854,3348,2,13,36583
1367659552,5810,990.2999877929688000,40.1399002075195300,572.4650268554688000,4.0989317893981930,55.6210517883300800,54,97,99,78,81,15494,0,0,0,0,2147123300,2147774107,2147569088,2147567926,191,2,13,53938
1367663152,5810,995.9199829101562000,39.5767784118652340,573.0590209960938000,4.0804629325866700,55.7084007263183600,55,98,101,79,81,15495,0,0,0,0,2147122614,2147775049,2147570002,2147567177,249,3,13,5016
1367666752,5810,996.0999755859375000,39.7696495056152340,572.4404296875000000,4.0996990203857420,55.6781501770019500,54,97,108,77,81,15495,0,0,0,0,2147125120,2147772342,2147575305,2147568731,2698,2,13,30353
1367670352,5812,994.1300048828125000,39.7478904724121100,571.9744873046875000,4.1141848564147950,55.6755714416503900,55,97,99,78,82,15495,0,0,0,0,2147120585,2147771483,2147570093,2147567268,3545,2,13,62949
1367673952,5810,998.2000122070312000,40.7926406860351560,572.0390014648438000,4.1121811866760250,55.5205383300781250,55,97,100,79,82,15493,0,0,0,0,2147121444,2147771465,2147577124,2147568987,107,3,13,24203
1367677552,5810,997.6699829101562000,39.3566818237304700,571.6953125000000000,4.1228680610656740,55.7319602966308600,56,97,100,77,80,15491,0,0,0,0,2147123776,2147772160,2147572105,2147568091,262,2,13,43834
1367681152,5808,994.4699707031250000,37.8355407714843750,571.5612792968750000,4.1270332336425780,55.9543495178222660,55,99,100,78,82,15490,0,0,0,0,2147119616,2147778953,2147575021,2147569051,3355,2,13,22757
1367684752,5809,998.4199829101562000,39.9449691772460940,571.9791259765625000,4.1140441894531250,55.6414794921875000,55,96,101,78,81,15491,0,0,0,0,2147123483,2147776356,2147572214,2147567945,316,2,13,34137
1367688352,5810,1001.3300170898438000,40.0549888610839840,571.9664916992188000,4.1144351959228520,55.6269989013671900,55,98,100,78,81,15491,0,0,0,0,2147120923,2147769152,2147572580,2147565302,3412,2,13,18704
1367691952,5811,1000.0100097656250000,39.1384506225585940,572.0607910156250000,4.1115021705627440,55.7670898437500000,55,96,100,78,80,15493,0,0,0,0,2147122514,2147769581,2147574208,2147565979,3465,2,13,33963
1367695552,5811,1000.5399780273438000,39.6041488647460940,570.9445800781250000,4.1462039947509770,55.6870384216308600,55,97,99,78,82,15489,0,0,0,0,2147120960,2147771730,2147573888,2147567149,464,2,13,46947
1367699156,5810,998.2700195312500000,37.2354698181152340,571.7556762695312000,4.1209869384765625,56.0491409301757800,54,98,100,78,81,15490,0,0,0,0,2147120704,2147771227,2147574619,2147569892,3449,2,13,13320
